VRD1500 KSFO-KLAX

Flight info

Callsign VRD1500
Flight time 0h 56m
Altitude 37000
Route WESLA5 SUSEY EBAYE BURGL IRNMN2
Aircraft A319/M-SDE3FGHIRWY/LB1

Departure

Time 2026-04-26 22:21
Airport San Francisco International Airport (KSFO)

Arrival

Time 2026-04-26 23:18
Airport Los Angeles International Airport (KLAX)
Time Latitude Longitude Altitude Speed Heading
2026-04-26 22:05 37.61166 -122.38459 22 ft 0 kts 297°
2026-04-26 22:10 37.61161 -122.38446 22 ft 4 kts 301°
2026-04-26 22:11 37.61144 -122.38419 22 ft 4 kts 324°
2026-04-26 22:11 37.61123 -122.38410 22 ft 4 kts 21°
2026-04-26 22:11 37.61118 -122.38412 22 ft 0 kts 27°
2026-04-26 22:14 37.61119 -122.38411 22 ft 1 kts 27°
2026-04-26 22:14 37.61129 -122.38405 22 ft 3 kts 27°
2026-04-26 22:14 37.61156 -122.38387 22 ft 6 kts 27°
2026-04-26 22:15 37.61205 -122.38355 22 ft 9 kts 27°
2026-04-26 22:15 37.61273 -122.38310 24 ft 13 kts 27°
2026-04-26 22:15 37.61321 -122.38224 24 ft 13 kts 72°
2026-04-26 22:15 37.61387 -122.38148 23 ft 14 kts 27°
2026-04-26 22:16 37.61474 -122.38091 23 ft 14 kts 27°
2026-04-26 22:16 37.61565 -122.38031 22 ft 15 kts 27°
2026-04-26 22:16 37.61660 -122.37966 24 ft 16 kts 35°
2026-04-26 22:16 37.61672 -122.37835 22 ft 16 kts 99°
2026-04-26 22:17 37.61657 -122.37694 22 ft 17 kts 97°
2026-04-26 22:17 37.61642 -122.37547 22 ft 17 kts 97°
2026-04-26 22:17 37.61626 -122.37396 22 ft 18 kts 98°
2026-04-26 22:17 37.61606 -122.37241 24 ft 18 kts 113°
2026-04-26 22:18 37.61546 -122.37099 23 ft 19 kts 118°
2026-04-26 22:18 37.61484 -122.36953 24 ft 19 kts 118°
2026-04-26 22:18 37.61403 -122.36830 22 ft 18 kts 138°
2026-04-26 22:18 37.61330 -122.36699 24 ft 19 kts 115°
2026-04-26 22:19 37.61274 -122.36552 22 ft 19 kts 115°
2026-04-26 22:19 37.61208 -122.36404 22 ft 20 kts 125°
2026-04-26 22:19 37.61141 -122.36251 23 ft 20 kts 117°
2026-04-26 22:19 37.61075 -122.36093 22 ft 18 kts 117°
2026-04-26 22:20 37.61047 -122.36009 22 ft 9 kts 97°
2026-04-26 22:20 37.61055 -122.35954 22 ft 10 kts 64°
2026-04-26 22:20 37.61132 -122.35882 22 ft 11 kts 26°
2026-04-26 22:20 37.61196 -122.35899 23 ft 12 kts 301°
2026-04-26 22:21 37.61299 -122.36144 22 ft 69 kts 297°
2026-04-26 22:21 37.61669 -122.37033 31 ft 154 kts 296°
2026-04-26 22:21 37.62161 -122.38234 906 ft 151 kts 294°
2026-04-26 22:21 37.62665 -122.39412 1880 ft 154 kts 297°
2026-04-26 22:22 37.63215 -122.40642 2498 ft 172 kts 298°
2026-04-26 22:22 37.63842 -122.42054 2859 ft 201 kts 297°
2026-04-26 22:22 37.64563 -122.43706 3427 ft 225 kts 297°
2026-04-26 22:22 37.65329 -122.45464 4382 ft 231 kts 297°
2026-04-26 22:23 37.66107 -122.47255 5430 ft 234 kts 297°
2026-04-26 22:23 37.66834 -122.49135 6287 ft 248 kts 285°
2026-04-26 22:23 37.66755 -122.51307 6984 ft 262 kts 249°
2026-04-26 22:23 37.65603 -122.53108 7867 ft 274 kts 215°
2026-04-26 22:24 37.63764 -122.53806 8840 ft 286 kts 182°
2026-04-26 22:24 37.61783 -122.53331 9835 ft 295 kts 163°
2026-04-26 22:24 37.59831 -122.52348 10487 ft 312 kts 158°
2026-04-26 22:24 37.57775 -122.51201 11010 ft 330 kts 158°
2026-04-26 22:25 37.55631 -122.50082 11829 ft 337 kts 161°
2026-04-26 22:25 37.53415 -122.49067 12697 ft 341 kts 163°
2026-04-26 22:25 37.51142 -122.48122 13564 ft 347 kts 162°
2026-04-26 22:25 37.48956 -122.46769 14324 ft 356 kts 150°
2026-04-26 22:26 37.47018 -122.44786 15052 ft 364 kts 136°
2026-04-26 22:26 37.45283 -122.42441 15792 ft 368 kts 134°
2026-04-26 22:26 37.43534 -122.40056 16519 ft 373 kts 134°
2026-04-26 22:26 37.41760 -122.37636 17223 ft 379 kts 135°
2026-04-26 22:27 37.39960 -122.35185 17939 ft 384 kts 135°
2026-04-26 22:27 37.38133 -122.32702 18626 ft 389 kts 135°
2026-04-26 22:27 37.36287 -122.30202 19275 ft 392 kts 135°
2026-04-26 22:27 37.34418 -122.27674 19939 ft 396 kts 135°
2026-04-26 22:28 37.32535 -122.25124 20586 ft 400 kts 135°
2026-04-26 22:28 37.30633 -122.22547 21226 ft 404 kts 135°
2026-04-26 22:28 37.28710 -122.19939 21842 ft 409 kts 135°
2026-04-26 22:28 37.26770 -122.17310 22475 ft 413 kts 135°
2026-04-26 22:29 37.24830 -122.14684 23118 ft 416 kts 135°
2026-04-26 22:29 37.22851 -122.12007 23712 ft 420 kts 136°
2026-04-26 22:29 37.20853 -122.09314 24262 ft 424 kts 136°
2026-04-26 22:29 37.18833 -122.06596 24814 ft 427 kts 136°
2026-04-26 22:30 37.16799 -122.03863 25339 ft 430 kts 136°
2026-04-26 22:30 37.14747 -122.01106 25839 ft 434 kts 136°
2026-04-26 22:30 37.12680 -121.98334 26331 ft 437 kts 136°
2026-04-26 22:30 37.10602 -121.95546 26833 ft 439 kts 136°
2026-04-26 22:31 37.08507 -121.92733 27330 ft 443 kts 136°
2026-04-26 22:31 37.06398 -121.89901 27791 ft 446 kts 136°
2026-04-26 22:31 37.04275 -121.87051 28276 ft 450 kts 136°
2026-04-26 22:31 37.02133 -121.84176 28748 ft 453 kts 136°
2026-04-26 22:32 36.99978 -121.81290 29200 ft 456 kts 137°
2026-04-26 22:32 36.97803 -121.78384 29667 ft 458 kts 136°
2026-04-26 22:32 36.95620 -121.75469 30117 ft 461 kts 137°
2026-04-26 22:32 36.93443 -121.72569 30488 ft 464 kts 137°
2026-04-26 22:33 36.91232 -121.69628 30864 ft 466 kts 137°
2026-04-26 22:33 36.86772 -121.63696 31630 ft 470 kts 137°
2026-04-26 22:33 36.84534 -121.60715 32085 ft 469 kts 136°
2026-04-26 22:34 36.82306 -121.57746 32657 ft 466 kts 137°
2026-04-26 22:34 36.80092 -121.54804 33226 ft 464 kts 137°
2026-04-26 22:34 36.77887 -121.51881 33777 ft 462 kts 137°
2026-04-26 22:34 36.75688 -121.48972 34290 ft 460 kts 137°
2026-04-26 22:35 36.73495 -121.46075 34707 ft 459 kts 137°
2026-04-26 22:35 36.71304 -121.43185 35074 ft 459 kts 137°
2026-04-26 22:35 36.69112 -121.40295 35395 ft 459 kts 137°
2026-04-26 22:35 36.66918 -121.37402 35735 ft 459 kts 137°
2026-04-26 22:36 36.64725 -121.34509 36068 ft 460 kts 137°
2026-04-26 22:36 36.62529 -121.31616 36384 ft 460 kts 137°
2026-04-26 22:36 36.60328 -121.28718 36702 ft 460 kts 137°
2026-04-26 22:36 36.58123 -121.25822 36963 ft 461 kts 138°
2026-04-26 22:37 36.55918 -121.22930 37033 ft 459 kts 138°
2026-04-26 22:37 36.51537 -121.17192 37029 ft 456 kts 138°
2026-04-26 22:38 36.47179 -121.11483 37028 ft 455 kts 138°
2026-04-26 22:38 36.42847 -121.05811 37032 ft 455 kts 137°
2026-04-26 22:39 36.38626 -120.99916 37026 ft 458 kts 135°
2026-04-26 22:39 36.35188 -120.94846 37036 ft 458 kts 134°
2026-04-26 22:40 36.31102 -120.88850 37032 ft 458 kts 135°
2026-04-26 22:40 36.26937 -120.82882 37030 ft 458 kts 136°
2026-04-26 22:41 36.22759 -120.76933 37021 ft 458 kts 136°
2026-04-26 22:41 36.18585 -120.70981 37024 ft 458 kts 136°
2026-04-26 22:42 36.14408 -120.65035 37028 ft 457 kts 136°
2026-04-26 22:42 36.10230 -120.59098 37026 ft 457 kts 136°
2026-04-26 22:43 36.06049 -120.53169 37009 ft 457 kts 136°
2026-04-26 22:43 36.01867 -120.47238 37016 ft 457 kts 136°
2026-04-26 22:44 35.97689 -120.41311 37026 ft 457 kts 136°
2026-04-26 22:44 35.93531 -120.35431 37014 ft 457 kts 136°
2026-04-26 22:45 35.89343 -120.29527 37018 ft 457 kts 136°
2026-04-26 22:45 35.84673 -120.24394 37019 ft 444 kts 154°
2026-04-26 22:46 35.79415 -120.20427 37022 ft 443 kts 154°
2026-04-26 22:46 35.74157 -120.16464 36992 ft 443 kts 154°
2026-04-26 22:47 35.68900 -120.12510 37009 ft 443 kts 154°
2026-04-26 22:47 35.63634 -120.08549 37019 ft 443 kts 155°
2026-04-26 22:48 35.58367 -120.04574 36989 ft 444 kts 155°
2026-04-26 22:48 35.53113 -120.00597 37001 ft 444 kts 155°
2026-04-26 22:49 35.47884 -119.96663 37001 ft 444 kts 155°
2026-04-26 22:49 35.42617 -119.92701 37004 ft 444 kts 155°
2026-04-26 22:50 35.37345 -119.88752 37003 ft 444 kts 155°
2026-04-26 22:50 35.32070 -119.84816 37013 ft 444 kts 155°
2026-04-26 22:51 35.26915 -119.80600 36990 ft 450 kts 149°
2026-04-26 22:51 35.21939 -119.75931 36823 ft 452 kts 149°
2026-04-26 22:51 35.19423 -119.73581 36036 ft 457 kts 149°
2026-04-26 22:52 35.16896 -119.71221 35429 ft 456 kts 148°
2026-04-26 22:52 35.14356 -119.68854 34503 ft 462 kts 148°
2026-04-26 22:52 35.11800 -119.66476 33807 ft 459 kts 147°
2026-04-26 22:52 35.09316 -119.64158 32873 ft 453 kts 147°
2026-04-26 22:53 35.06837 -119.61839 32128 ft 443 kts 147°
2026-04-26 22:53 35.04433 -119.59592 31614 ft 429 kts 147°
2026-04-26 22:53 35.02078 -119.57397 31138 ft 424 kts 147°
2026-04-26 22:53 34.99746 -119.55233 30721 ft 419 kts 147°
2026-04-26 22:54 34.97388 -119.53055 30642 ft 434 kts 147°
2026-04-26 22:54 34.94951 -119.50811 30524 ft 444 kts 147°
2026-04-26 22:54 34.92453 -119.48510 29616 ft 456 kts 146°
2026-04-26 22:54 34.89887 -119.46149 28274 ft 467 kts 146°
2026-04-26 22:55 34.87251 -119.43764 27270 ft 476 kts 146°
2026-04-26 22:55 34.84572 -119.41364 26223 ft 479 kts 147°
2026-04-26 22:55 34.81907 -119.38985 25729 ft 466 kts 147°
2026-04-26 22:55 34.79346 -119.36703 25601 ft 446 kts 147°
2026-04-26 22:56 34.76893 -119.34518 25413 ft 430 kts 147°
2026-04-26 22:56 34.74539 -119.32418 25153 ft 420 kts 147°
2026-04-26 22:56 34.72187 -119.30341 24910 ft 416 kts 147°
2026-04-26 22:56 34.69845 -119.28304 24670 ft 413 kts 147°
2026-04-26 22:57 34.67506 -119.26280 24416 ft 412 kts 147°
2026-04-26 22:57 34.65181 -119.24263 23995 ft 409 kts 147°
2026-04-26 22:57 34.62876 -119.22261 23465 ft 407 kts 147°
2026-04-26 22:57 34.60570 -119.20274 22907 ft 404 kts 147°
2026-04-26 22:58 34.58284 -119.18310 22401 ft 401 kts 147°
2026-04-26 22:58 34.56017 -119.16361 21902 ft 398 kts 147°
2026-04-26 22:58 34.53769 -119.14404 21395 ft 396 kts 147°
2026-04-26 22:58 34.51547 -119.12442 20899 ft 394 kts 147°
2026-04-26 22:59 34.49344 -119.10481 20396 ft 392 kts 147°
2026-04-26 22:59 34.47154 -119.08530 19913 ft 390 kts 147°
2026-04-26 22:59 34.44966 -119.06585 19429 ft 389 kts 147°
2026-04-26 22:59 34.42790 -119.04656 18927 ft 386 kts 147°
2026-04-26 23:00 34.40552 -119.02709 18462 ft 413 kts 147°
2026-04-26 23:00 34.38152 -119.00643 17942 ft 425 kts 147°
2026-04-26 23:00 34.35785 -118.98603 17393 ft 409 kts 147°
2026-04-26 23:00 34.33546 -118.96662 17182 ft 385 kts 147°
2026-04-26 23:01 34.31411 -118.94765 16585 ft 379 kts 146°
2026-04-26 23:01 34.29313 -118.92865 16114 ft 375 kts 146°
2026-04-26 23:01 34.27241 -118.90968 15614 ft 373 kts 146°
2026-04-26 23:01 34.25192 -118.89086 14961 ft 369 kts 146°
2026-04-26 23:02 34.23160 -118.87210 14291 ft 366 kts 145°
2026-04-26 23:02 34.21164 -118.85366 13978 ft 353 kts 145°
2026-04-26 23:02 34.19262 -118.83606 13815 ft 336 kts 146°
2026-04-26 23:02 34.17429 -118.81913 13410 ft 328 kts 146°
2026-04-26 23:03 34.15637 -118.80216 12883 ft 326 kts 143°
2026-04-26 23:03 34.13928 -118.78437 12481 ft 321 kts 141°
2026-04-26 23:03 34.12277 -118.76625 12141 ft 319 kts 140°
2026-04-26 23:03 34.10678 -118.74835 11827 ft 316 kts 140°
2026-04-26 23:04 34.09067 -118.73039 11507 ft 314 kts 140°
2026-04-26 23:04 34.07459 -118.71264 11222 ft 312 kts 141°
2026-04-26 23:04 34.05861 -118.69515 11029 ft 308 kts 142°
2026-04-26 23:04 34.04339 -118.67737 10811 ft 306 kts 132°
2026-04-26 23:05 34.03216 -118.65561 10464 ft 307 kts 115°
2026-04-26 23:05 34.02640 -118.63087 10022 ft 307 kts 97°
2026-04-26 23:05 34.02420 -118.60529 9645 ft 306 kts 96°
2026-04-26 23:05 34.02193 -118.58000 9314 ft 301 kts 97°
2026-04-26 23:06 34.01958 -118.55509 9011 ft 297 kts 97°
2026-04-26 23:06 34.01724 -118.53059 8564 ft 292 kts 97°
2026-04-26 23:06 34.01496 -118.50652 8069 ft 287 kts 97°
2026-04-26 23:06 34.01272 -118.48271 7627 ft 284 kts 97°
2026-04-26 23:07 34.01104 -118.45903 7214 ft 284 kts 88°
2026-04-26 23:07 34.01393 -118.43566 6888 ft 281 kts 77°
2026-04-26 23:07 34.01790 -118.41287 6497 ft 275 kts 78°
2026-04-26 23:07 34.02172 -118.39047 6069 ft 269 kts 78°
2026-04-26 23:08 34.02552 -118.36829 5951 ft 266 kts 78°
2026-04-26 23:08 34.02891 -118.34649 5428 ft 264 kts 82°
2026-04-26 23:08 34.03142 -118.32466 4909 ft 261 kts 84°
2026-04-26 23:08 34.03359 -118.30291 4371 ft 261 kts 84°
2026-04-26 23:09 34.03573 -118.28123 3981 ft 258 kts 84°
2026-04-26 23:09 34.03790 -118.25984 3647 ft 255 kts 84°
2026-04-26 23:09 34.03924 -118.23920 3618 ft 237 kts 98°
2026-04-26 23:09 34.03555 -118.22068 3622 ft 221 kts 109°
2026-04-26 23:10 34.03080 -118.20304 3621 ft 221 kts 111°
2026-04-26 23:10 34.02580 -118.18557 3637 ft 220 kts 111°
2026-04-26 23:10 34.02080 -118.16804 3638 ft 223 kts 111°
2026-04-26 23:10 34.01585 -118.15048 3631 ft 223 kts 111°
2026-04-26 23:11 34.01058 -118.13286 3608 ft 224 kts 118°
2026-04-26 23:11 34.00062 -118.11927 3641 ft 215 kts 156°
2026-04-26 23:11 33.98682 -118.11501 3653 ft 201 kts 188°
2026-04-26 23:11 33.97386 -118.11962 3637 ft 193 kts 216°
2026-04-26 23:12 33.96473 -118.13100 3624 ft 188 kts 244°
2026-04-26 23:12 33.96128 -118.14537 3614 ft 173 kts 264°
2026-04-26 23:12 33.95987 -118.15963 3616 ft 172 kts 263°
2026-04-26 23:12 33.95845 -118.17385 3518 ft 170 kts 264°
2026-04-26 23:13 33.95707 -118.18783 3335 ft 167 kts 264°
2026-04-26 23:13 33.95568 -118.20165 3145 ft 166 kts 264°
2026-04-26 23:13 33.95428 -118.21552 2938 ft 167 kts 263°
2026-04-26 23:13 33.95289 -118.22933 2712 ft 166 kts 264°
2026-04-26 23:14 33.95148 -118.24326 2471 ft 168 kts 263°
2026-04-26 23:14 33.95010 -118.25704 2245 ft 163 kts 263°
2026-04-26 23:14 33.94878 -118.27015 2012 ft 153 kts 264°
2026-04-26 23:14 33.94754 -118.28237 1817 ft 141 kts 264°
2026-04-26 23:15 33.94641 -118.29341 1634 ft 125 kts 263°
2026-04-26 23:15 33.94539 -118.30348 1469 ft 118 kts 263°
2026-04-26 23:15 33.94442 -118.31312 1315 ft 115 kts 263°
2026-04-26 23:15 33.94344 -118.32266 1152 ft 115 kts 264°
2026-04-26 23:16 33.94246 -118.33228 1000 ft 116 kts 264°
2026-04-26 23:16 33.94150 -118.34186 831 ft 118 kts 262°
2026-04-26 23:16 33.94050 -118.35182 689 ft 121 kts 262°
2026-04-26 23:16 33.93947 -118.36197 489 ft 122 kts 263°
2026-04-26 23:17 33.93843 -118.37229 324 ft 124 kts 261°
2026-04-26 23:17 33.93743 -118.38222 172 ft 119 kts 259°
2026-04-26 23:17 33.93644 -118.39156 93 ft 98 kts 262°
2026-04-26 23:17 33.93581 -118.39772 94 ft 50 kts 263°
2026-04-26 23:18 33.93562 -118.40072 96 ft 16 kts 271°
2026-04-26 23:18 33.93576 -118.40211 96 ft 19 kts 285°
2026-04-26 23:18 33.93616 -118.40338 96 ft 0 kts 294°
2026-04-26 23:18 33.93620 -118.40348 95 ft 9 kts 294°
2026-04-26 23:19 33.93621 -118.40496 96 ft 16 kts 262°
2026-04-26 23:19 33.93607 -118.40633 97 ft 17 kts 262°
2026-04-26 23:19 33.93593 -118.40771 95 ft 11 kts 264°
2026-04-26 23:19 33.93599 -118.40816 96 ft 0 kts 291°
2026-04-26 23:20 33.93602 -118.40825 94 ft 4 kts 291°
2026-04-26 23:20 33.93627 -118.40881 95 ft 11 kts 316°
2026-04-26 23:20 33.93707 -118.40903 95 ft 13 kts 353°
2026-04-26 23:21 33.93803 -118.40916 94 ft 15 kts 353°
2026-04-26 23:21 33.93875 -118.40854 93 ft 15 kts 82°
2026-04-26 23:21 33.93888 -118.40723 94 ft 16 kts 83°
2026-04-26 23:21 33.93902 -118.40587 95 ft 16 kts 83°
2026-04-26 23:22 33.93966 -118.40543 96 ft 12 kts 349°
2026-04-26 23:22 33.94050 -118.40556 95 ft 13 kts 353°
2026-04-26 23:22 33.94115 -118.40591 93 ft 9 kts 287°
2026-04-26 23:22 33.94112 -118.40634 94 ft 0 kts 263°